Time,TemperatureF,DewpointF,PressureIn,WindDirection,WindDirectionDegrees,WindSpeedMPH,WindSpeedGustMPH,Humidity,HourlyPrecipIn,Conditions,Clouds,dailyrainin,SoftwareType,DateUTC
2013-05-14 00:03:00,52.0,32.0,30.23,East,91,1.0,-999.0,46,-99.99,,,-99.99,,2013-05-14 04:03:00,
2013-05-14 00:13:00,52.0,32.0,30.23,East,91,1.0,-999.0,46,-99.99,,,-99.99,,2013-05-14 04:13:00,
2013-05-14 00:23:00,52.0,32.0,30.24,NE,56,2.0,-999.0,46,-99.99,,,-99.99,,2013-05-14 04:23:00,
2013-05-14 00:32:00,52.0,32.0,30.24,NE,56,2.0,-999.0,46,-99.99,,,-99.99,,2013-05-14 04:32:00,
2013-05-14 00:43:00,52.0,32.0,30.24,NE,56,2.0,-999.0,46,-99.99,,,-99.99,,2013-05-14 04:43:00,
2013-05-14 00:53:00,52.0,32.0,30.24,East,100,1.0,-999.0,47,-99.99,,,-99.99,,2013-05-14 04:53:00,
2013-05-14 01:02:00,52.0,32.0,30.24,East,100,1.0,-999.0,47,-99.99,,,-99.99,,2013-05-14 05:02:00,
2013-05-14 01:12:00,52.0,32.0,30.24,East,100,1.0,-999.0,47,-99.99,,,-99.99,,2013-05-14 05:12:00,
2013-05-14 01:22:00,51.0,31.0,30.24,East,83,1.0,-999.0,47,-99.99,,,-99.99,,2013-05-14 05:22:00,
2013-05-14 01:32:00,51.0,31.0,30.24,East,83,1.0,-999.0,47,-99.99,,,-99.99,,2013-05-14 05:32:00,
2013-05-14 01:42:00,52.0,32.0,30.24,NNW,337,0.0,-999.0,47,-99.99,,,-99.99,,2013-05-14 05:42:00,
2013-05-14 01:52:00,52.0,32.0,30.24,NNW,337,0.0,-999.0,47,-99.99,,,-99.99,,2013-05-14 05:52:00,
2013-05-14 02:01:00,52.0,32.0,30.24,NNW,337,0.0,-999.0,47,-99.99,,,-99.99,,2013-05-14 06:01:00,
2013-05-14 02:13:00,52.0,32.0,30.24,NNW,337,0.0,-999.0,47,-99.99,,,-99.99,,2013-05-14 06:13:00,
2013-05-14 02:22:00,51.0,31.0,30.24,WNW,301,0.0,-999.0,47,-99.99,,,-99.99,,2013-05-14 06:22:00,
2013-05-14 02:32:00,51.0,31.0,30.24,WNW,301,0.0,-999.0,47,-99.99,,,-99.99,,2013-05-14 06:32:00,
2013-05-14 02:42:00,51.0,31.0,30.24,WNW,301,0.0,-999.0,47,-99.99,,,-99.99,,2013-05-14 06:42:00,
2013-05-14 02:52:00,52.0,33.0,30.24,WNW,301,0.0,-999.0,48,-99.99,,,-99.99,,2013-05-14 06:52:00,
2013-05-14 03:02:00,52.0,33.0,30.24,WNW,301,0.0,-999.0,48,-99.99,,,-99.99,,2013-05-14 07:02:00,
2013-05-14 03:11:00,52.0,33.0,30.24,WNW,301,0.0,-999.0,48,-99.99,,,-99.99,,2013-05-14 07:11:00,
2013-05-14 03:21:00,51.0,34.0,30.23,NW,318,1.0,-999.0,51,-99.99,,,-99.99,,2013-05-14 07:21:00,
2013-05-14 03:32:00,51.0,34.0,30.23,NW,318,1.0,-999.0,51,-99.99,,,-99.99,,2013-05-14 07:32:00,
2013-05-14 03:42:00,51.0,33.0,30.23,WNW,282,0.0,-999.0,50,-99.99,,,-99.99,,2013-05-14 07:42:00,
2013-05-14 03:52:00,51.0,33.0,30.23,WNW,282,0.0,-999.0,50,-99.99,,,-99.99,,2013-05-14 07:52:00,
2013-05-14 04:02:00,51.0,33.0,30.23,WNW,282,0.0,-999.0,50,-99.99,,,-99.99,,2013-05-14 08:02:00,
2013-05-14 04:11:00,51.0,33.0,30.23,WNW,282,0.0,-999.0,50,-99.99,,,-99.99,,2013-05-14 08:11:00,
2013-05-14 04:21:00,51.0,33.0,30.23,WNW,282,0.0,-999.0,50,-99.99,,,-99.99,,2013-05-14 08:21:00,
2013-05-14 04:32:00,52.0,33.0,30.23,WNW,287,1.0,-999.0,49,-99.99,,,-99.99,,2013-05-14 08:32:00,
2013-05-14 04:42:00,53.0,33.0,30.22,WNW,292,1.0,-999.0,47,-99.99,,,-99.99,,2013-05-14 08:42:00,
2013-05-14 04:52:00,53.0,33.0,30.22,WNW,292,1.0,-999.0,47,-99.99,,,-99.99,,2013-05-14 08:52:00,
2013-05-14 05:02:00,53.0,33.0,30.22,WNW,292,1.0,-999.0,47,-99.99,,,-99.99,,2013-05-14 09:02:00,
2013-05-14 05:11:00,53.0,33.0,30.22,WNW,292,1.0,-999.0,47,-99.99,,,-99.99,,2013-05-14 09:11:00,
2013-05-14 05:22:00,52.0,33.0,30.22,WNW,295,0.0,-999.0,48,-99.99,,,-99.99,,2013-05-14 09:22:00,
2013-05-14 05:32:00,52.0,33.0,30.22,WNW,295,0.0,-999.0,48,-99.99,,,-99.99,,2013-05-14 09:32:00,
2013-05-14 05:44:00,52.0,33.0,30.22,WNW,294,1.0,-999.0,48,-99.99,,,-99.99,,2013-05-14 09:44:00,
2013-05-14 05:54:00,52.0,33.0,30.22,WNW,294,1.0,-999.0,48,-99.99,,,-99.99,,2013-05-14 09:54:00,
2013-05-14 06:05:00,52.0,33.0,30.22,WNW,294,1.0,-999.0,48,-99.99,,,-99.99,,2013-05-14 10:05:00,
2013-05-14 06:14:00,52.0,33.0,30.22,WNW,294,1.0,-999.0,48,-99.99,,,-99.99,,2013-05-14 10:14:00,
2013-05-14 06:25:00,52.0,33.0,30.22,WNW,294,0.0,-999.0,48,-99.99,,,-99.99,,2013-05-14 10:25:00,
2013-05-14 06:33:00,52.0,33.0,30.22,WNW,294,0.0,-999.0,48,-99.99,,,-99.99,,2013-05-14 10:33:00,
2013-05-14 06:42:00,52.0,33.0,30.22,WNW,294,0.0,-999.0,48,-99.99,,,-99.99,,2013-05-14 10:42:00,
2013-05-14 06:53:00,52.0,33.0,30.23,WNW,295,0.0,-999.0,49,-99.99,,,-99.99,,2013-05-14 10:53:00,
2013-05-14 07:02:00,52.0,33.0,30.23,WNW,295,0.0,-999.0,49,-99.99,,,-99.99,,2013-05-14 11:02:00,
2013-05-14 07:11:00,52.0,33.0,30.23,WNW,295,0.0,-999.0,49,-99.99,,,-99.99,,2013-05-14 11:11:00,
2013-05-14 07:22:00,52.0,33.0,30.23,WNW,295,0.0,-999.0,49,-99.99,,,-99.99,,2013-05-14 11:22:00,
2013-05-14 07:32:00,51.0,34.0,30.24,WNW,288,0.0,-999.0,51,-99.99,,,-99.99,,2013-05-14 11:32:00,
2013-05-14 07:43:00,51.0,34.0,30.24,WNW,288,0.0,-999.0,51,-99.99,,,-99.99,,2013-05-14 11:43:00,
2013-05-14 07:53:00,51.0,34.0,30.24,WNW,287,0.0,-999.0,51,-99.99,,,-99.99,,2013-05-14 11:53:00,
2013-05-14 08:03:00,51.0,34.0,30.24,WNW,287,0.0,-999.0,51,-99.99,,,-99.99,,2013-05-14 12:03:00,
2013-05-14 08:12:00,51.0,34.0,30.24,WNW,287,0.0,-999.0,51,-99.99,,,-99.99,,2013-05-14 12:12:00,
2013-05-14 08:21:00,51.0,34.0,30.25,WNW,288,0.0,-999.0,52,-99.99,,,-99.99,,2013-05-14 12:21:00,
2013-05-14 08:32:00,51.0,34.0,30.25,WNW,288,0.0,-999.0,52,-99.99,,,-99.99,,2013-05-14 12:32:00,
2013-05-14 08:42:00,51.0,35.0,30.27,WNW,288,0.0,-999.0,54,-99.99,,,-99.99,,2013-05-14 12:42:00,
2013-05-14 08:52:00,51.0,35.0,30.27,WNW,288,0.0,-999.0,54,-99.99,,,-99.99,,2013-05-14 12:52:00,
2013-05-14 09:01:00,51.0,35.0,30.27,WNW,288,0.0,-999.0,54,-99.99,,,-99.99,,2013-05-14 13:01:00,
2013-05-14 09:11:00,51.0,35.0,30.27,WNW,288,0.0,-999.0,54,-99.99,,,-99.99,,2013-05-14 13:11:00,
2013-05-14 09:22:00,52.0,34.0,30.27,WNW,289,0.0,-999.0,51,-99.99,,,-99.99,,2013-05-14 13:22:00,
2013-05-14 09:32:00,52.0,34.0,30.27,WNW,289,0.0,-999.0,51,-99.99,,,-99.99,,2013-05-14 13:32:00,
2013-05-14 09:42:00,52.0,34.0,30.27,WNW,289,0.0,-999.0,51,-99.99,,,-99.99,,2013-05-14 13:42:00,
2013-05-14 09:52:00,52.0,34.0,30.27,WNW,289,0.0,-999.0,51,-99.99,,,-99.99,,2013-05-14 13:52:00,
2013-05-14 10:01:00,53.0,35.0,30.27,WNW,288,0.0,-999.0,51,-99.99,,,-99.99,,2013-05-14 14:01:00,
2013-05-14 10:11:00,56.0,38.0,30.27,SSW,208,1.0,-999.0,50,-99.99,,,-99.99,,2013-05-14 14:11:00,
2013-05-14 10:22:00,56.0,38.0,30.27,SSW,208,1.0,-999.0,50,-99.99,,,-99.99,,2013-05-14 14:22:00,
2013-05-14 10:32:00,56.0,38.0,30.27,SSW,208,1.0,-999.0,50,-99.99,,,-99.99,,2013-05-14 14:32:00,
2013-05-14 10:42:00,56.0,38.0,30.27,SSW,208,1.0,-999.0,50,-99.99,,,-99.99,,2013-05-14 14:42:00,
2013-05-14 10:52:00,57.0,38.0,30.27,SW,231,1.0,-999.0,48,-99.99,,,-99.99,,2013-05-14 14:52:00,
2013-05-14 11:01:00,57.0,38.0,30.27,SW,231,1.0,-999.0,48,-99.99,,,-99.99,,2013-05-14 15:01:00,
2013-05-14 11:12:00,57.0,38.0,30.27,SW,231,1.0,-999.0,48,-99.99,,,-99.99,,2013-05-14 15:12:00,
2013-05-14 11:22:00,60.0,41.0,30.28,SW,236,1.0,-999.0,49,-99.99,,,-99.99,,2013-05-14 15:22:00,
2013-05-14 11:33:00,60.0,41.0,30.28,SW,236,1.0,-999.0,49,-99.99,,,-99.99,,2013-05-14 15:33:00,
2013-05-14 11:43:00,61.0,40.0,30.28,West,262,2.0,-999.0,45,-99.99,,,-99.99,,2013-05-14 15:43:00,
2013-05-14 11:53:00,61.0,40.0,30.28,West,262,2.0,-999.0,45,-99.99,,,-99.99,,2013-05-14 15:53:00,
2013-05-14 12:02:00,61.0,40.0,30.28,West,262,2.0,-999.0,45,-99.99,,,-99.99,,2013-05-14 16:02:00,
2013-05-14 12:12:00,61.0,40.0,30.28,West,262,2.0,-999.0,45,-99.99,,,-99.99,,2013-05-14 16:12:00,
2013-05-14 12:23:00,63.0,44.0,30.28,SW,216,2.0,-999.0,49,-99.99,,,-99.99,,2013-05-14 16:23:00,
2013-05-14 12:33:00,63.0,44.0,30.28,SW,216,2.0,-999.0,49,-99.99,,,-99.99,,2013-05-14 16:33:00,
2013-05-14 12:44:00,63.0,44.0,30.28,SW,216,2.0,-999.0,49,-99.99,,,-99.99,,2013-05-14 16:44:00,
2013-05-14 12:54:00,64.0,44.0,30.27,WSW,237,2.0,-999.0,48,-99.99,,,-99.99,,2013-05-14 16:54:00,
2013-05-14 13:03:00,64.0,44.0,30.27,WSW,237,2.0,-999.0,48,-99.99,,,-99.99,,2013-05-14 17:03:00,
2013-05-14 13:13:00,64.0,44.0,30.27,WSW,237,2.0,-999.0,48,-99.99,,,-99.99,,2013-05-14 17:13:00,
2013-05-14 13:24:00,66.0,46.0,30.27,West,270,2.0,-999.0,49,-99.99,,,-99.99,,2013-05-14 17:24:00,
2013-05-14 13:33:00,66.0,46.0,30.27,West,270,2.0,-999.0,49,-99.99,,,-99.99,,2013-05-14 17:33:00,
2013-05-14 13:43:00,66.0,46.0,30.27,West,270,2.0,-999.0,49,-99.99,,,-99.99,,2013-05-14 17:43:00,
2013-05-14 13:52:00,67.0,47.0,30.25,WNW,291,2.0,-999.0,49,-99.99,,,-99.99,,2013-05-14 17:52:00,
2013-05-14 14:02:00,67.0,47.0,30.25,WNW,291,2.0,-999.0,49,-99.99,,,-99.99,,2013-05-14 18:02:00,
2013-05-14 14:12:00,67.0,47.0,30.25,WNW,291,2.0,-999.0,49,-99.99,,,-99.99,,2013-05-14 18:12:00,
2013-05-14 14:22:00,68.0,49.0,30.24,WNW,300,3.0,-999.0,50,-99.99,,,-99.99,,2013-05-14 18:22:00,
2013-05-14 14:32:00,68.0,49.0,30.24,WNW,300,3.0,-999.0,50,-99.99,,,-99.99,,2013-05-14 18:32:00,
2013-05-14 14:42:00,68.0,49.0,30.24,WNW,300,3.0,-999.0,50,-99.99,,,-99.99,,2013-05-14 18:42:00,
2013-05-14 14:52:00,67.0,49.0,30.23,WNW,285,3.0,-999.0,53,-99.99,,,-99.99,,2013-05-14 18:52:00,
2013-05-14 15:01:00,67.0,49.0,30.23,WNW,285,3.0,-999.0,53,-99.99,,,-99.99,,2013-05-14 19:01:00,
2013-05-14 15:12:00,67.0,49.0,30.23,WNW,285,3.0,-999.0,53,-99.99,,,-99.99,,2013-05-14 19:12:00,
2013-05-14 15:22:00,70.0,50.0,30.22,SSW,197,3.0,-999.0,50,-99.99,,,-99.99,,2013-05-14 19:22:00,
2013-05-14 15:32:00,70.0,50.0,30.22,SSW,197,3.0,-999.0,50,-99.99,,,-99.99,,2013-05-14 19:32:00,
2013-05-14 15:42:00,70.0,50.0,30.22,SSW,197,3.0,-999.0,50,-99.99,,,-99.99,,2013-05-14 19:42:00,
2013-05-14 15:53:00,70.0,51.0,30.20,WSW,246,3.0,-999.0,51,-99.99,,,-99.99,,2013-05-14 19:53:00,
2013-05-14 16:02:00,70.0,51.0,30.20,WSW,246,3.0,-999.0,51,-99.99,,,-99.99,,2013-05-14 20:02:00,
2013-05-14 16:11:00,70.0,51.0,30.20,WSW,246,3.0,-999.0,51,-99.99,,,-99.99,,2013-05-14 20:11:00,
2013-05-14 16:23:00,72.0,53.0,30.19,WSW,256,3.0,-999.0,51,-99.99,,,-99.99,,2013-05-14 20:23:00,
2013-05-14 16:33:00,72.0,53.0,30.19,WSW,256,3.0,-999.0,51,-99.99,,,-99.99,,2013-05-14 20:33:00,
2013-05-14 16:44:00,71.0,51.0,30.17,WNW,288,3.0,-999.0,50,-99.99,,,-99.99,,2013-05-14 20:44:00,
2013-05-14 16:52:00,71.0,51.0,30.17,WNW,288,3.0,-999.0,50,-99.99,,,-99.99,,2013-05-14 20:52:00,
2013-05-14 17:03:00,71.0,51.0,30.17,WNW,288,3.0,-999.0,50,-99.99,,,-99.99,,2013-05-14 21:03:00,
2013-05-14 17:12:00,71.0,51.0,30.17,WNW,288,3.0,-999.0,50,-99.99,,,-99.99,,2013-05-14 21:12:00,
2013-05-14 17:23:00,72.0,53.0,30.17,WSW,251,3.0,-999.0,51,-99.99,,,-99.99,,2013-05-14 21:23:00,
2013-05-14 17:33:00,72.0,53.0,30.17,WSW,251,3.0,-999.0,51,-99.99,,,-99.99,,2013-05-14 21:33:00,
2013-05-14 17:43:00,72.0,53.0,30.16,West,259,3.0,-999.0,51,-99.99,,,-99.99,,2013-05-14 21:43:00,
2013-05-14 17:53:00,72.0,53.0,30.16,West,259,3.0,-999.0,51,-99.99,,,-99.99,,2013-05-14 21:53:00,
2013-05-14 18:03:00,72.0,53.0,30.16,West,259,3.0,-999.0,51,-99.99,,,-99.99,,2013-05-14 22:03:00,
2013-05-14 18:13:00,72.0,53.0,30.16,West,259,3.0,-999.0,51,-99.99,,,-99.99,,2013-05-14 22:13:00,
2013-05-14 18:24:00,70.0,52.0,30.16,WNW,296,4.0,-999.0,53,-99.99,,,-99.99,,2013-05-14 22:24:00,
2013-05-14 18:34:00,70.0,52.0,30.16,WNW,296,4.0,-999.0,53,-99.99,,,-99.99,,2013-05-14 22:34:00,
2013-05-14 18:45:00,70.0,52.0,30.16,WNW,296,4.0,-999.0,53,-99.99,,,-99.99,,2013-05-14 22:45:00,
2013-05-14 18:54:00,70.0,52.0,30.15,NW,310,4.0,-999.0,53,-99.99,,,-99.99,,2013-05-14 22:54:00,
2013-05-14 19:03:00,70.0,52.0,30.15,NW,310,4.0,-999.0,53,-99.99,,,-99.99,,2013-05-14 23:03:00,
2013-05-14 19:12:00,70.0,52.0,30.15,NW,310,4.0,-999.0,53,-99.99,,,-99.99,,2013-05-14 23:12:00,
2013-05-14 19:22:00,69.0,52.0,30.14,WSW,241,4.0,-999.0,54,-99.99,,,-99.99,,2013-05-14 23:22:00,
2013-05-14 19:32:00,69.0,52.0,30.14,WSW,241,4.0,-999.0,54,-99.99,,,-99.99,,2013-05-14 23:32:00,
2013-05-14 19:44:00,69.0,52.0,30.14,WSW,241,4.0,-999.0,54,-99.99,,,-99.99,,2013-05-14 23:44:00,
2013-05-14 19:53:00,68.0,52.0,30.14,West,271,3.0,-999.0,57,-99.99,,,-99.99,,2013-05-14 23:53:00,
2013-05-14 20:02:00,68.0,52.0,30.14,West,271,3.0,-999.0,57,-99.99,,,-99.99,,2013-05-15 00:02:00,
2013-05-14 20:11:00,68.0,52.0,30.14,West,271,3.0,-999.0,57,-99.99,,,-99.99,,2013-05-15 00:11:00,
2013-05-14 20:21:00,67.0,53.0,30.14,WNW,288,3.0,-999.0,61,-99.99,,,-99.99,,2013-05-15 00:21:00,
2013-05-14 20:32:00,67.0,53.0,30.14,WNW,288,3.0,-999.0,61,-99.99,,,-99.99,,2013-05-15 00:32:00,
2013-05-14 20:42:00,65.0,53.0,30.14,WSW,256,2.0,-999.0,64,-99.99,,,-99.99,,2013-05-15 00:42:00,
2013-05-14 20:52:00,65.0,53.0,30.14,WSW,256,2.0,-999.0,64,-99.99,,,-99.99,,2013-05-15 00:52:00,
2013-05-14 21:01:00,65.0,53.0,30.14,WSW,256,2.0,-999.0,64,-99.99,,,-99.99,,2013-05-15 01:01:00,
2013-05-14 21:11:00,65.0,53.0,30.14,WSW,256,2.0,-999.0,64,-99.99,,,-99.99,,2013-05-15 01:11:00,
2013-05-14 21:22:00,64.0,52.0,30.14,WNW,299,2.0,-999.0,65,-99.99,,,-99.99,,2013-05-15 01:22:00,
2013-05-14 21:32:00,64.0,52.0,30.14,WNW,299,2.0,-999.0,65,-99.99,,,-99.99,,2013-05-15 01:32:00,
2013-05-14 21:42:00,64.0,52.0,30.14,WNW,299,2.0,-999.0,65,-99.99,,,-99.99,,2013-05-15 01:42:00,
2013-05-14 21:52:00,63.0,52.0,30.15,West,260,1.0,-999.0,67,-99.99,,,-99.99,,2013-05-15 01:52:00,
2013-05-14 22:02:00,63.0,52.0,30.15,West,260,1.0,-999.0,67,-99.99,,,-99.99,,2013-05-15 02:02:00,
2013-05-14 22:11:00,63.0,52.0,30.15,West,260,1.0,-999.0,67,-99.99,,,-99.99,,2013-05-15 02:11:00,
2013-05-14 22:22:00,63.0,52.0,30.15,WNW,291,2.0,-999.0,68,-99.99,,,-99.99,,2013-05-15 02:22:00,
2013-05-14 22:32:00,63.0,52.0,30.15,WNW,291,2.0,-999.0,68,-99.99,,,-99.99,,2013-05-15 02:32:00,
2013-05-14 22:42:00,63.0,52.0,30.15,WNW,291,2.0,-999.0,68,-99.99,,,-99.99,,2013-05-15 02:42:00,
2013-05-14 22:52:00,63.0,53.0,30.16,West,268,3.0,-999.0,69,-99.99,,,-99.99,,2013-05-15 02:52:00,
2013-05-14 23:01:00,63.0,53.0,30.16,West,268,3.0,-999.0,69,-99.99,,,-99.99,,2013-05-15 03:01:00,
2013-05-14 23:13:00,63.0,53.0,30.16,West,268,3.0,-999.0,69,-99.99,,,-99.99,,2013-05-15 03:13:00,
2013-05-14 23:22:00,63.0,53.0,30.15,WNW,292,5.0,-999.0,70,-99.99,,,-99.99,,2013-05-15 03:22:00,
2013-05-14 23:33:00,63.0,53.0,30.15,WNW,292,5.0,-999.0,70,-99.99,,,-99.99,,2013-05-15 03:33:00,
2013-05-14 23:44:00,63.0,53.0,30.14,WNW,283,5.0,-999.0,70,-99.99,,,-99.99,,2013-05-15 03:44:00,
2013-05-14 23:54:00,63.0,53.0,30.14,WNW,283,5.0,-999.0,70,-99.99,,,-99.99,,2013-05-15 03:54:00,